Tracking 25612 objects as of 20-May-2022
HD Live streaming from Space Station
objects crossing your sky now

FLOCK 3P 53

Track FLOCK 3P 53 now!
10-day predictions
FLOCK 3P 53 is classified as:


NORAD ID: 42013
Int'l Code: 2017-008BT
Perigee: 442.0 km
Apogee: 445.3 km
Inclination: 97.3 °
Period: 93.3 minutes
Semi major axis: 6814 km
RCS: Unknown
Launch date: February 15, 2017
Source: United States (US)
Launch site: SRIHARIKOTA (SRI)
aabbcc
Your satellite tracking list
Your tracking list is empty




NASA's NSSDC Master Catalog

Two Line Element Set (TLE):
1 42013U 17008BT  22139.46125136  .00038101  00000-0  85620-3 0  9998
2 42013  97.2763 210.5057 0002431 327.2211  32.8886 15.43248360292727
Source of the keplerian elements: AFSPC